Weather History for Sheridan, WY

Change the Weather History Date:

Saturday, February 11, 2012

  Actual Average Record
Temperature  
Mean Temperature 9 °F 26 °F  
Max Temperature 20 °F 38 °F 61 °F (1961)
Min Temperature -2 °F 13 °F -19 °F (1986)
Degree Days  
Heating Degree Days 56 39  
Month to date heating degree days 421 439  
Since 1 July heating degree days 4392 4899  
Cooling Degree Days 0 0  
Month to date cooling degree days 0 0  
Year to date cooling degree days 0 0  
Moisture  
Dew Point 5 °F    
Average Humidity 80    
Maximum Humidity 92    
Minimum Humidity 67    
Precipitation  
Precipitation 0.00 in 0.02 in 0.20 in (1949)
Month to date precipitation 0.11 0.21  
Year to date precipitation 0.46 0.77  
Sea Level Pressure  
Sea Level Pressure 30.43 in    
Wind  
Wind Speed 4 mph (WNW)    
Max Wind Speed 8 mph    
Max Gust Speed 12 mph    
Visibility 10 miles    
Events      
T = Trace of Precipitation, MM = Missing Value Source: NWS Daily Summary

Daily Weather History Graph

Daily Weather History Graph

Search for Another Location

Airport:

Trip Planner

Search our weather history database for the weather conditions in past years. The results will help you decide how hot, cold, wet, or windy it might be!

Date:

Astronomy

Feb. 11, 2012 Rise Set
Actual Time 7:14 AM MST 5:30 PM MST
Civil Twilight 6:44 AM MST 6:00 PM MST
Nautical Twilight 6:10 AM MST 6:34 PM MST
Astronomical Twilight 5:36 AM MST 7:08 PM MST
Moon 10:37 PM MST (2/11) 8:44 AM MST (2/11)
Length of Visible Light 11h 15m
Length of Day
10h 15m
Waning Gibbous, 81% of the Moon is Illuminated
Feb 11
Waning Gibbous
Feb 14
Last Quarter
Feb 21
New
Feb 29
First Quarter
Mar 8
Full

Hourly Weather History & Observations

Time (MST) Temp. Windchill Dew Point Humidity Pressure Visibility Wind Dir Wind Speed Gust Speed Precip Events Conditions
12:53 AM 12.0 °F 2.7 °F 7.0 °F 80% 30.54 in 10.0 mi ESE 5.8 mph - N/A   Scattered Clouds
1:53 AM 12.0 °F 1.5 °F 7.0 °F 80% 30.54 in 10.0 mi ESE 6.9 mph - N/A   Mostly Cloudy
2:53 AM 3.9 °F -8.2 °F -0.0 °F 84% 30.56 in 10.0 mi NNW 6.9 mph - N/A   Clear
3:53 AM 3.0 °F -9.3 °F -0.0 °F 87% 30.56 in 10.0 mi NW 6.9 mph - N/A   Scattered Clouds
4:53 AM 3.0 °F -9.3 °F -0.9 °F 84% 30.57 in 10.0 mi NW 6.9 mph - N/A   Overcast
5:53 AM 1.0 °F -6.7 °F -4.0 °F 79% 30.57 in 10.0 mi NW 3.5 mph - N/A   Mostly Cloudy
6:53 AM -0.9 °F -11.0 °F -5.1 °F 83% 30.56 in 10.0 mi North 4.6 mph - N/A   Mostly Cloudy
7:53 AM -0.0 °F -7.9 °F -5.1 °F 79% 30.57 in 10.0 mi NNW 3.5 mph - N/A   Scattered Clouds
8:53 AM 3.9 °F - -2.0 °F 76% 30.56 in 10.0 mi Calm Calm - N/A   Clear
9:53 AM 7.0 °F - -0.0 °F 73% 30.53 in 10.0 mi Calm Calm - N/A   Clear
10:53 AM 10.9 °F - 3.0 °F 70% 30.51 in 10.0 mi Calm Calm - N/A   Clear
11:53 AM 12.9 °F - 6.1 °F 74% 30.48 in 10.0 mi Calm Calm - N/A   Partly Cloudy
12:53 PM 14.0 °F 6.5 °F 7.0 °F 74% 30.44 in 10.0 mi West 4.6 mph - N/A   Overcast
1:53 PM 17.1 °F 10.0 °F 9.0 °F 71% 30.40 in 10.0 mi WNW 4.6 mph - N/A   Overcast
2:53 PM 18.0 °F 8.7 °F 10.9 °F 74% 30.41 in 10.0 mi WNW 6.9 mph - N/A   Overcast
3:53 PM 19.0 °F 12.3 °F 12.0 °F 74% 30.39 in 10.0 mi West 4.6 mph - N/A   Overcast
4:53 PM 19.9 °F - 12.9 °F 74% 30.36 in 10.0 mi Calm Calm - N/A   Overcast
5:53 PM 16.0 °F 5.3 °F 10.9 °F 81% 30.36 in 10.0 mi WNW 8.1 mph - N/A   Mostly Cloudy
6:53 PM 12.9 °F 3.8 °F 10.0 °F 88% 30.36 in 10.0 mi South 5.8 mph - N/A   Overcast
7:53 PM 10.9 °F - 8.1 °F 88% 30.33 in 10.0 mi Calm Calm - N/A   Partly Cloudy
8:53 PM 12.0 °F - 8.1 °F 84% 30.29 in 10.0 mi Calm Calm - N/A   Clear
9:53 PM 9.0 °F -3.2 °F 6.1 °F 88% 30.28 in 10.0 mi South 8.1 mph - N/A   Clear
10:53 PM 12.0 °F 5.9 °F 9.0 °F 88% 30.23 in 10.0 mi SSW 3.5 mph - N/A   Overcast
11:53 PM 10.0 °F - 8.1 °F 92% 30.22 in 10.0 mi Calm Calm - N/A   Partly Cloudy